When you browse on this site, cookies collect data to enhance your experience and personalize the content and advertising you see.
Visit our Privacy Policy to learn more. By continuing to use the site, you agree to this use of cookies and data.
  • In Österreich
  • Länderverzeichnis
  • Für 7 Tage
  • Wassertemperatur
  • Wetterkarte
  • News
  • Widgets
  • user-avatar
    Anmelden

    Stündliche Wetter Zatysivka

    Heute, 17 November, Sonntag

    Zeit Temperatur Niederschläge Wind Luftdruck Luftfeuchtigkeit
    00:00 +12°C° 0 mm 3 m/S 753 mmHg 84%
    01:00 +12°C° 0 mm 3 m/S 753 mmHg 84%
    02:00 +12°C° 0 mm 2 m/S 753 mmHg 74%
    03:00 +10°C° 0 mm 2 m/S 752 mmHg 85%
    04:00 +10°C° 0 mm 2 m/S 753 mmHg 88%
    05:00 +10°C° 0 mm 2 m/S 752 mmHg 85%
    06:00 +10°C° 0 mm 3 m/S 752 mmHg 85%
    07:00 +10°C° 0 mm 3 m/S 752 mmHg 84%
    08:00 +10°C° 0 mm 3 m/S 753 mmHg 82%
    09:00 +10°C° 0 mm 2 m/S 753 mmHg 82%
    10:00 +13°C° 0 mm 2 m/S 753 mmHg 79%
    11:00 +15°C° 0 mm 2 m/S 753 mmHg 77%
    12:00 +16°C° 0 mm 3 m/S 753 mmHg 74%
    13:00 +17°C° 0 mm 4 m/S 753 mmHg 72%
    14:00 +17°C° 0 mm 4 m/S 753 mmHg 74%
    15:00 +17°C° 0 mm 3 m/S 753 mmHg 77%
    16:00 +17°C° 0 mm 3 m/S 752 mmHg 82%
    17:00 +14°C° 0 mm 3 m/S 752 mmHg 87%
    18:00 +13°C° 0 mm 3 m/S 752 mmHg 91%
    19:00 +13°C° 0 mm 3 m/S 752 mmHg 91%
    20:00 +12°C° 0 mm 3 m/S 752 mmHg 91%
    21:00 +12°C° 0 mm 4 m/S 752 mmHg 90%
    22:00 +12°C° 0 mm 4 m/S 751 mmHg 89%
    23:00 +12°C° 0 mm 4 m/S 751 mmHg 88%

    Morgen, 18 November, Montag

    Zeit Temperatur Niederschläge Wind Luftdruck Luftfeuchtigkeit
    00:00 +12°C° 0 mm 3 m/S 751 mmHg 86%
    01:00 +11°C° 0 mm 3 m/S 751 mmHg 86%
    02:00 +11°C° 0 mm 3 m/S 751 mmHg 85%
    03:00 +11°C° 0 mm 3 m/S 751 mmHg 85%
    04:00 +11°C° 0 mm 3 m/S 750 mmHg 84%
    05:00 +11°C° 0 mm 3 m/S 750 mmHg 83%
    06:00 +10°C° 0 mm 3 m/S 750 mmHg 82%
    07:00 +10°C° 0 mm 3 m/S 750 mmHg 81%
    08:00 +10°C° 0 mm 3 m/S 750 mmHg 81%
    09:00 +10°C° 0 mm 3 m/S 750 mmHg 80%
    10:00 +12°C° 0 mm 5 m/S 750 mmHg 78%
    11:00 +13°C° 0 mm 6 m/S 750 mmHg 75%
    12:00 +14°C° 0 mm 7 m/S 750 mmHg 75%
    13:00 +15°C° 0 mm 6 m/S 750 mmHg 75%
    14:00 +15°C° 0 mm 5 m/S 750 mmHg 76%
    15:00 +15°C° 0 mm 5 m/S 750 mmHg 78%
    16:00 +15°C° 0 mm 5 m/S 750 mmHg 82%
    17:00 +14°C° 0 mm 5 m/S 750 mmHg 86%
    18:00 +14°C° 0 mm 5 m/S 750 mmHg 87%
    19:00 +14°C° 0 mm 5 m/S 751 mmHg 89%
    20:00 +13°C° 0 mm 5 m/S 751 mmHg 90%
    21:00 +13°C° 0 mm 4 m/S 752 mmHg 92%
    22:00 +12°C° 0 mm 4 m/S 752 mmHg 93%
    23:00 +11°C° 0 mm 4 m/S 753 mmHg 94%

    übermorgen, 19 November, Dienstag

    Zeit Temperatur Niederschläge Wind Luftdruck Luftfeuchtigkeit
    00:00 +10°C° 0 mm 5 m/S 753 mmHg 93%
    01:00 +11°C° 0 mm 4 m/S 754 mmHg 95%
    02:00 +11°C° 0 mm 3 m/S 754 mmHg 96%
    03:00 +11°C° 0 mm 3 m/S 755 mmHg 96%
    04:00 +10°C° 0 mm 3 m/S 755 mmHg 96%
    05:00 +10°C° 0 mm 2 m/S 755 mmHg 96%
    06:00 +10°C° 0 mm 2 m/S 755 mmHg 97%
    07:00 +10°C° 0 mm 1 m/S 756 mmHg 97%
    08:00 +10°C° 0 mm 1 m/S 756 mmHg 97%
    09:00 +11°C° 0 mm 1 m/S 756 mmHg 94%
    10:00 +12°C° 0 mm 2 m/S 756 mmHg 88%
    11:00 +13°C° 0 mm 2 m/S 756 mmHg 83%
    12:00 +14°C° 0 mm 2 m/S 756 mmHg 80%
    13:00 +15°C° 0 mm 2 m/S 755 mmHg 78%
    14:00 +14°C° 0 mm 3 m/S 755 mmHg 76%
    15:00 +16°C° 0 mm 3 m/S 755 mmHg 76%
    16:00 +15°C° 0 mm 2 m/S 755 mmHg 83%
    17:00 +14°C° 0 mm 2 m/S 754 mmHg 89%
    18:00 +13°C° 0 mm 2 m/S 754 mmHg 92%
    19:00 +13°C° 0 mm 2 m/S 754 mmHg 93%
    20:00 +12°C° 0 mm 2 m/S 754 mmHg 91%
    21:00 +12°C° 0 mm 2 m/S 754 mmHg 90%
    22:00 +11°C° 0 mm 3 m/S 754 mmHg 91%
    23:00 +11°C° 0 mm 3 m/S 754 mmHg 92%

    20 November, Mittwoch

    Zeit Temperatur Niederschläge Wind Luftdruck Luftfeuchtigkeit
    00:00 +10°C° 0 mm 3 m/S 754 mmHg 92%
    01:00 +10°C° 0 mm 3 m/S 753 mmHg 92%
    02:00 +10°C° 0 mm 2 m/S 753 mmHg 92%
    03:00 +10°C° 0 mm 3 m/S 753 mmHg 92%
    04:00 +10°C° 0 mm 2 m/S 753 mmHg 93%
    05:00 +10°C° 0 mm 2 m/S 753 mmHg 93%
    06:00 +10°C° 0 mm 3 m/S 753 mmHg 94%
    07:00 +9°C° 0 mm 3 m/S 753 mmHg 93%
    08:00 +9°C° 0 mm 3 m/S 753 mmHg 92%
    09:00 +10°C° 0 mm 3 m/S 753 mmHg 91%
    10:00 +12°C° 0 mm 3 m/S 753 mmHg 89%
    11:00 +14°C° 0 mm 3 m/S 753 mmHg 85%
    12:00 +15°C° 0 mm 4 m/S 753 mmHg 80%
    13:00 +17°C° 0 mm 4 m/S 752 mmHg 78%
    14:00 +17°C° 0 mm 4 m/S 752 mmHg 78%
    15:00 +17°C° 0 mm 2 m/S 752 mmHg 81%
    16:00 +16°C° 0 mm 1 m/S 752 mmHg 84%
    17:00 +16°C° 0 mm 1 m/S 752 mmHg 83%
    18:00 +16°C° 0 mm 2 m/S 752 mmHg 86%
    19:00 +14°C° 0 mm 4 m/S 752 mmHg 86%
    20:00 +14°C° 0 mm 4 m/S 753 mmHg 85%
    21:00 +13°C° 0 mm 5 m/S 753 mmHg 86%
    22:00 +13°C° 0 mm 5 m/S 753 mmHg 85%
    23:00 +13°C° 0 mm 3 m/S 753 mmHg 86%

    21 November, Donnerstag

    Zeit Temperatur Niederschläge Wind Luftdruck Luftfeuchtigkeit
    00:00 +12°C° 0 mm 3 m/S 754 mmHg 95%
    01:00 +13°C° 0.2 mm 2 m/S 754 mmHg 99%
    02:00 +13°C° 0.5 mm 2 m/S 754 mmHg 100%

    22 November, Freitag

    Zeit Temperatur Niederschläge Wind Luftdruck Luftfeuchtigkeit
    Mehr zeigen